Dewpoint
72 72 73 74 74 75 76 74 75 74 76 74 74 73 72 72 73 73 73 72 71 71 71 70 70 69 68 66 66 68 68 67 67 67 67 69 71 73 76 76 76 75 74 72 71 72 72 72 72 72 72 72 72 72 71 71 71 71 71 72 72 72 72 72 71 71 71 72 71 70 70 70 70 71 71 71 71 71 70 70 70 70 70 70 70
72 73 73 73 74 75 76 75 74 77 75 74 73 73 71 71 72 73 72 71 71 72 71 69 66 66 68 67 65 63 66 64 66 65 67 69 71 72 75 76 76 75 74 73 72 72 72 72 72 72 72 72 72 72 71 72 71 72 71 72 72 72 72 72 72 71 70 70 70 71 70 70 70 70 71 71 71 71 71 71 71 71 71 71 71
73 74 73 74 75 75 75 75 74 74 75 74 75 74 73 72 73 72 72 72 72 71 71 69 68 67 66 66 66 66 64 64 61 63 62 68 70 72 74 76 76 75 74 73 72 73 72 72 72 72 72 72 72 72 72 72 72 72 72 72 72 72 72 72 72 72 71 70 70 70 71 71 70 70 71 71 71 71 71 71 71 71 71 71 71
76 75 75 75 74 74 75 75 74 75 75 74 73 74 74 73 75 75 75 73 72 72 72 68 68 66 66 65 67 66 62 61 58 60 63 67 71 73 72 73 75 73 73 72 73 73 71 72 73 73 73 73 73 73 73 72 72 72 73 72 72 73 72 72 72 72 72 72 71 71 71 71 71 71 71 71 71 71 71 71 71 71 71 71 71
76 76 75 75 74 76 74 75 75 76 75 76 75 75 75 74 75 75 74 73 72 72 71 68 66 66 65 65 66 66 65 62 62 61 61 64 69 72 72 72 74 73 74 73 73 73 73 72 73 73 73 73 73 72 72 73 73 72 73 72 73 73 73 72 72 72 72 72 72 72 72 72 71 71 71 71 72 71 71 71 71 71 71 71 71
76 76 75 74 75 75 75 75 76 76 76 76 74 74 73 74 73 73 73 72 71 71 68 68 66 66 64 66 66 66 65 60 59 62 64 64 68 72 71 71 73 75 75 74 73 73 73 73 73 74 73 73 73 73 73 73 73 73 73 73 73 72 72 72 72 72 72 72 72 72 72 72 72 72 73 72 72 72 72 72 72 72 72 72 72
77 76 75 75 74 74 75 75 76 76 74 75 75 74 74 74 73 72 73 71 70 70 68 67 66 66 67 66 65 65 64 60 65 64 65 70 71 69 71 70 71 74 75 75 74 74 73 73 73 74 73 74 74 74 74 74 72 71 72 71 72 73 72 72 71 71 71 72 72 72 72 72 72 72 71 72 72 72 73 73 72 72 72 72 73
76 77 75 75 73 73 74 76 77 76 75 75 75 73 74 74 74 73 72 71 71 69 67 67 66 65 66 66 65 66 63 63 63 62 63 68 68 69 70 71 72 72 73 73 73 76 74 73 73 74 74 74 74 73 73 73 70 70 71 71 71 71 71 72 71 71 72 72 72 72 72 72 72 72 72 72 72 72 73 73 73 73 73 73 73
77 77 76 75 74 75 74 76 76 75 76 76 75 74 74 72 75 75 73 72 69 67 66 67 65 65 64 64 64 66 63 65 63 64 66 67 67 64 69 72 73 74 75 75 75 75 74 74 74 74 74 74 74 73 73 72 70 72 71 70 70 71 71 71 71 71 71 72 72 72 72 72 71 72 71 72 72 72 72 72 73 73 73 73 73
77 77 76 76 75 75 74 76 76 76 76 76 75 74 75 74 75 75 73 73 69 68 66 66 65 64 64 63 67 63 65 65 66 66 66 66 67 69 70 71 72 72 73 74 73 75 75 75 74 74 74 74 73 73 72 72 72 71 72 71 71 71 70 71 71 71 72 72 72 72 71 71 71 71 71 71 72 72 72 72 73 73 73 73 73
76 77 77 75 75 76 76 77 76 76 76 75 74 75 74 74 74 74 75 73 71 68 66 65 65 65 64 65 67 69 67 64 67 66 64 65 66 68 64 71 71 73 75 73 73 74 75 75 75 75 74 73 73 73 72 72 71 72 72 72 71 72 72 72 71 71 71 72 72 71 72 71 72 72 71 71 72 72 72 73 72 72 72 72 72
77 77 77 77 76 75 76 76 76 76 76 74 73 73 75 75 74 73 73 72 71 69 66 65 65 66 67 67 68 68 67 66 65 65 66 65 67 67 64 66 69 71 71 72 72 71 74 76 75 74 74 73 73 73 72 72 72 71 72 71 72 71 71 72 71 71 71 71 72 72 72 72 72 72 72 72 72 73 72 72 72 72 72 72 71
77 77 77 77 76 76 76 76 76 76 76 75 74 72 75 75 74 74 71 70 69 68 67 65 65 65 68 66 68 69 67 68 66 64 64 65 66 67 67 66 67 67 70 71 71 71 73 75 75 75 74 75 74 73 72 72 72 71 72 72 72 71 72 72 71 72 72 72 72 72 72 72 72 72 72 72 72 72 72 72 72 72 72 72 71
76 77 77 77 77 76 76 76 76 76 76 76 75 75 75 74 73 72 71 69 68 65 65 65 63 61 62 63 64 66 68 66 63 63 64 64 65 67 69 65 62 64 66 69 72 73 72 72 72 73 74 75 74 73 74 74 73 72 72 72 72 72 72 72 72 72 72 72 71 71 72 72 72 72 72 72 72 72 72 72 72 72 72 72 72
77 77 77 77 77 76 76 76 76 76 76 75 75 75 75 74 73 70 69 69 68 67 69 67 61 64 66 62 61 61 65 64 63 63 62 64 65 64 66 64 67 67 68 67 67 70 70 72 73 73 73 73 72 73 73 73 73 72 73 73 72 71 72 72 72 72 72 72 72 72 72 72 72 72 72 72 72 72 72 72 72 71 71 71 71
76 76 77 77 77 77 76 76 76 76 76 75 74 74 75 74 73 71 70 68 65 65 67 68 65 64 59 59 61 58 59 62 63 63 63 64 64 64 67 66 68 70 68 66 63 68 70 71 72 73 73 72 71 70 70 72 73 72 72 73 73 72 72 71 70 71 71 71 71 71 72 72 72 72 71 71 72 72 72 72 72 71 71 71 71
76 76 76 77 77 77 77 76 76 76 76 75 74 73 74 73 73 72 71 68 65 63 69 68 67 67 63 61 60 59 58 60 59 63 61 61 63 63 66 67 66 70 68 68 68 68 67 69 72 72 73 73 72 70 69 70 69 69 71 72 73 72 72 72 71 71 72 72 71 71 71 71 71 71 71 70 69 69 70 71 71 71 71 71 71
76 76 76 76 77 77 77 77 76 76 76 74 74 74 74 73 74 72 71 70 68 63 63 70 67 69 67 66 66 60 60 62 61 59 65 63 64 64 66 65 67 68 70 67 66 66 68 68 70 70 71 70 69 68 68 67 69 68 68 70 69 70 71 71 70 69 68 69 70 69 69 69 67 67 68 67 66 66 67 68 69 69 69 68 68
75 76 76 77 77 77 77 77 76 76 76 76 75 74 72 73 73 72 71 70 68 64 64 65 69 70 67 64 65 64 62 63 60 61 60 64 62 60 61 64 64 65 64 64 62 62 65 67 66 67 70 71 70 69 68 67 68 69 68 71 71 68 70 70 70 68 66 66 67 68 68 68 68 67 66 66 67 66 66 67 67 67 67 67 67
75 76 77 77 77 77 77 77 76 75 75 75 74 73 73 74 74 73 74 72 69 66 64 63 65 66 67 66 66 67 67 63 62 61 60 60 62 61 60 61 64 62 61 60 59 60 65 68 67 67 67 70 71 69 68 68 68 69 68 71 69 69 70 70 69 69 67 65 64 65 66 67 67 67 67 67 67 66 65 66 66 66 67 66 66
76 76 77 76 77 77 77 77 76 76 76 75 74 74 74 74 74 73 73 72 70 69 67 67 64 64 68 68 66 65 64 63 65 65 61 59 58 59 61 61 62 62 64 62 62 65 64 64 67 66 66 67 69 69 67 68 69 70 68 72 71 69 69 70 69 68 66 65 65 64 64 64 64 65 64 64 64 65 65 65 65 65 65 65 65
76 76 77 77 77 77 77 76 76 75 75 75 75 75 74 74 74 73 73 72 71 70 68 68 66 64 66 68 66 65 65 64 62 62 62 63 59 58 59 60 60 61 63 63 63 62 64 64 66 64 65 67 67 67 68 69 70 69 70 72 71 71 70 71 70 65 65 65 64 64 63 64 64 64 64 64 64 64 64 64 65 65 65 65 64
74 76 76 76 77 77 76 76 76 76 76 76 75 74 73 74 73 74 74 73 71 70 69 69 68 68 67 68 66 63 63 61 62 61 61 62 60 56 56 57 57 58 62 61 65 64 67 67 64 61 66 65 66 67 68 67 70 71 72 72 71 71 72 72 71 69 66 69 66 65 65 64 64 64 64 64 64 65 65 65 65 65 64 64 63
75 74 75 74 76 76 76 76 76 76 76 76 75 75 73 73 74 74 74 73 72 71 69 69 67 68 66 63 64 63 63 62 61 64 63 62 61 61 60 62 62 60 63 64 65 63 63 64 63 64 65 65 67 68 68 68 68 70 71 71 72 72 71 71 71 71 70 69 69 68 66 65 65 65 66 65 64 64 63 63 63 63 63 63 62
75 74 75 75 76 77 77 76 76 76 76 76 76 76 75 74 74 73 73 73 72 71 70 69 68 66 65 63 63 63 63 64 63 62 63 64 63 61 58 59 59 59 63 61 61 61 62 61 62 63 63 67 67 69 68 67 65 69 69 68 71 71 71 71 70 70 70 70 69 68 68 68 68 68 67 67 67 65 64 62 62 62 62 62 62
73 75 74 75 75 76 77 77 77 77 77 77 76 76 76 75 74 74 73 73 72 72 71 69 69 69 68 66 64 63 63 64 63 64 62 62 61 59 62 62 60 58 64 64 66 61 61 62 62 67 66 66 65 67 68 64 65 70 68 65 67 69 70 70 70 69 69 69 69 69 68 68 67 67 68 67 66 66 66 65 65 64 64 64 64
74 75 76 76 76 76 77 77 77 77 77 77 76 76 76 75 75 74 74 73 73 71 70 69 68 68 69 68 66 65 64 67 63 64 63 62 62 61 62 60 58 57 58 63 64 63 57 63 61 62 67 69 68 68 67 65 67 67 66 68 69 68 69 69 69 69 68 68 68 68 69 69 69 69 68 68 68 67 66 66 65 65 66 66 66
75 76 75 76 76 76 77 76 77 76 77 77 76 76 76 75 74 74 74 73 72 72 71 70 68 70 69 69 69 64 66 64 65 65 65 64 64 64 63 62 59 57 58 58 58 59 60 60 63 65 67 68 68 67 68 67 66 68 67 69 70 70 68 68 68 68 68 67 67 68 68 68 68 68 68 68 68 68 68 67 67 67 67 67 68
74 75 75 76 76 76 76 75 76 76 76 77 76 76 76 75 74 74 74 71 72 72 71 70 70 67 68 69 68 67 67 69 68 66 68 68 66 65 64 62 63 60 58 58 58 57 58 56 56 68 67 68 68 66 68 67 68 67 67 67 67 68 68 67 67 68 68 67 67 66 67 67 67 67 68 68 68 68 68 68 68 68 68 68 68
73 74 74 75 75 76 76 76 76 76 76 76 76 76 75 74 74 74 73 73 72 72 72 71 70 70 68 68 68 66 68 68 66 66 69 69 66 65 64 65 65 61 61 59 59 60 58 60 57 59 67 68 67 67 67 66 70 69 68 68 66 67 68 67 67 67 67 67 66 66 66 66 66 66 67 67 67 67 67 67 67 67 67 68 68
74 75 75 74 75 75 76 76 76 76 76 76 76 76 75 74 74 73 73 73 72 71 72 71 70 70 69 68 69 67 69 67 67 67 69 69 67 66 66 66 66 64 63 62 59 62 61 59 59 58 60 66 63 64 66 66 69 68 68 68 68 68 67 69 67 66 66 66 66 65 65 65 64 65 65 66 66 66 66 67 67 67 67 67 67
73 74 74 74 74 74 74 74 74 75 75 75 75 75 75 74 73 72 72 72 71 71 70 70 68 69 69 68 69 68 69 68 68 67 69 69 68 66 66 66 67 66 65 64 62 60 63 59 61 63 62 63 67 66 65 65 69 69 68 67 69 68 69 65 68 67 66 66 65 65 64 64 63 64 65 65 66 66 67 67 67 67 67 67 67
73 73 74 74 75 74 74 74 74 75 76 75 75 75 74 74 73 73 72 72 71 71 71 70 69 69 69 68 68 68 69 68 67 66 66 68 69 67 68 67 65 67 66 65 62 62 64 64 63 62 63 64 64 66 65 64 67 67 67 67 68 66 66 65 65 66 65 65 64 64 64 64 63 64 64 65 65 66 66 66 66 66 65 66 66
74 73 74 74 74 74 74 75 75 75 76 76 74 74 74 74 73 72 72 71 71 70 70 70 70 68 69 69 68 68 69 67 67 66 65 65 66 64 66 65 65 66 67 64 64 62 61 66 65 66 65 65 64 67 65 64 65 67 67 68 67 66 66 65 64 65 65 65 64 64 64 64 63 63 64 64 65 65 65 65 65 64 64 64 64
74 73 74 74 75 75 75 75 76 76 76 75 75 74 74 74 73 72 71 71 70 70 69 70 69 69 68 68 67 67 68 67 67 66 65 66 65 65 65 66 66 65 68 67 64 63 62 62 64 63 63 66 64 65 67 66 67 67 66 66 65 66 66 66 64 63 65 64 64 64 64 64 63 63 63 63 63 63 63 62 62 62 62 62 61
72 74 74 74 75 75 75 75 76 75 75 75 75 74 74 74 73 72 72 71 70 70 69 69 69 69 68 68 67 67 67 66 67 66 67 67 67 67 67 68 68 67 68 68 67 65 64 63 65 64 63 64 65 66 66 67 65 67 66 67 67 66 66 66 66 64 64 64 64 63 63 63 63 62 62 62 61 61 61 61 61 61 60 60 60
72 73 74 75 75 75 74 75 75 75 75 75 75 73 73 73 73 72 72 71 71 70 70 70 69 69 68 68 67 67 68 67 67 66 67 68 67 67 67 68 67 67 67 67 68 67 66 65 64 66 66 66 66 66 66 65 66 67 67 67 66 66 67 64 63 64 64 63 63 63 63 63 63 63 62 62 61 61 61 61 60 59 59 59 57
72 73 74 74 74 75 75 75 75 75 75 75 75 74 72 72 72 72 72 71 70 70 70 69 69 69 68 68 68 68 67 66 66 66 68 68 68 68 67 68 67 67 68 68 68 68 67 66 66 64 66 64 66 66 67 66 65 64 65 67 67 67 67 65 64 63 62 61 61 62 63 63 63 62 62 62 61 61 60 60 60 59 58 57 55
71 72 73 74 74 74 75 75 74 75 75 75 75 74 73 73 73 72 71 71 70 70 70 69 68 68 68 68 68 68 67 67 66 67 68 68 68 68 68 68 68 68 67 67 68 68 67 66 66 66 65 66 66 64 67 67 67 65 63 63 64 68 68 66 64 62 61 61 63 63 62 62 63 61 60 60 60 60 60 59 58 57 57 56 55
71 72 72 73 74 74 74 74 75 75 75 74 75 74 74 73 72 72 71 71 70 70 70 69 68 67 67 67 66 67 67 67 67 67 67 67 68 68 68 68 68 68 66 66 67 66 66 65 64 63 65 65 66 66 66 66 65 65 65 63 63 63 64 65 66 63 63 63 62 58 62 63 62 63 61 61 61 61 59 59 59 60 59 57 56
72 72 72 73 73 73 74 74 74 74 74 74 74 74 73 73 72 72 71 71 70 70 69 68 68 68 68 67 66 65 67 68 67 67 66 66 67 68 69 68 68 68 67 66 66 65 65 64 64 65 64 65 64 65 64 65 63 62 65 65 64 64 64 63 64 65 64 61 61 59 60 60 59 60 59 60 60 61 59 61 60 60 59 57 57
73 73 73 73 72 73 73 73 73 73 73 73 69 64 66 72 72 71 71 71 71 70 70 69 68 68 67 66 66 66 67 67 67 66 66 65 65 66 69 69 68 68 67 67 66 65 65 64 63 63 63 63 63 65 64 63 64 65 64 64 63 63 64 62 62 64 64 62 60 61 61 60 57 58 59 57 56 59 58 58 58 57 58 58 58
73 74 74 73 72 72 72 72 72 72 72 72 64 62 63 64 70 72 71 71 70 70 69 69 69 68 67 67 67 67 67 67 67 66 65 65 64 65 66 68 68 69 67 66 65 65 64 63 64 65 63 63 64 64 63 61 64 64 63 65 63 63 61 59 58 60 64 63 62 61 60 61 61 58 58 57 56 57 57 57 59 59 58 58 59
74 74 73 73 73 72 72 72 72 72 71 66 62 62 62 62 64 71 71 70 70 69 69 69 69 68 68 67 67 67 67 67 66 67 66 64 64 64 64 65 66 66 66 67 66 65 66 65 65 65 64 64 63 64 61 61 64 64 64 64 63 60 60 59 59 58 61 64 61 59 57 59 60 58 58 58 56 56 54 58 59 58 58 58 58
73 73 74 73 73 73 72 72 71 71 71 64 61 60 61 61 62 66 71 71 70 69 69 69 69 69 69 67 67 67 67 66 67 67 68 67 64 64 64 65 65 64 63 63 66 68 67 67 65 65 64 64 63 63 63 64 66 64 64 63 62 60 60 59 57 57 60 63 61 58 55 56 57 57 54 56 56 56 52 54 57 59 58 58 58
73 73 73 73 73 73 72 72 71 71 71 63 60 59 60 60 61 63 71 71 70 69 69 69 69 69 69 68 67 66 67 68 69 68 69 68 68 67 67 67 67 66 64 63 63 65 67 66 66 64 66 66 64 65 66 66 66 64 64 62 62 60 60 59 61 60 60 59 58 55 54 52 53 53 54 54 55 55 54 53 56 57 56 56 55
73 73 72 73 72 72 72 71 71 71 70 60 59 59 59 58 59 61 71 71 71 70 70 69 69 69 69 68 68 68 69 70 69 68 68 68 68 68 67 66 67 67 67 65 64 63 64 64 65 65 65 66 66 67 67 67 66 66 64 62 62 61 61 61 59 60 59 60 58 56 51 49 51 51 51 50 49 51 50 50 53 54 55 54 54
72 72 72 72 72 72 72 72 71 71 70 59 59 58 58 57 58 65 70 71 71 70 70 70 70 70 69 69 69 69 69 69 66 63 66 68 68 67 67 67 68 68 67 67 63 63 65 64 65 62 62 63 64 67 67 65 65 65 62 60 61 60 58 56 53 48 48 55 58 53 49 49 50 46 49 48 48 48 47 46 49 53 55 54 54
72 71 71 71 72 72 72 72 71 71 70 63 58 57 57 56 59 67 69 70 71 70 70 71 70 70 70 69 69 68 68 68 63 60 62 65 67 66 67 67 67 67 66 67 63 62 62 61 61 61 60 60 60 58 59 60 63 61 60 58 57 53 55 52 50 47 47 46 45 50 49 47 50 49 46 46 47 46 47 47 47 49 53 53 53
71 71 71 71 72 72 71 71 70 70 70 64 56 56 55 55 60 68 69 70 70 71 71 71 71 71 70 67 67 68 67 67 60 58 60 64 67 67 67 66 66 66 66 65 63 64 59 60 60 60 60 60 59 59 58 57 57 60 58 55 53 51 51 50 48 48 44 46 48 46 48 45 47 49 47 47 47 46 47 48 47 49 51 50 52
72 72 72 72 71 72 71 71 67 70 70 64 55 55 55 54 61 69 69 70 70 70 70 71 70 70 70 66 64 65 66 65 57 57 58 62 67 67 67 67 66 66 65 65 65 64 64 63 62 60 60 59 60 59 60 58 58 60 59 57 54 50 49 47 45 46 45 44 48 53 48 47 46 44 45 45 43 43 46 49 49 50 49 47 46